This demonstration page uses our WeatherBlox Daily Observations layout. Learn more.

Left ArrowRight Arrow

40.92945, -100.16068

Hourly Observations for February 13, 2020

Temp ( °F °C ) Dew Point ( °F °C ) Humidity (%) Winds ( mph kmh ) Pressure ( in mb ) Visibility ( mi km ) Precip ( " mm )
12:15 am 00:15 Clear 7 -13.7 -5 -20.5 57 57 N 10 17 30.52 1034 10 16 N/A
12:35 am 00:35 Partly Cloudy 7 -13.7 -4 -20 59 59 N 12 19 30.52 1034 10 16 N/A
12:55 am 00:55 Partly Cloudy 7 -14 -4 -19.8 62 62 N 15 24 30.53 1034 10 16 N/A
1:15 am 01:15 Mostly Cloudy 6 -14.2 -7 -21.7 53 53 N 14 22 30.54 1034 10 16 N/A
1:35 am 01:35 Mostly Cloudy 6 -14.5 -8 -22 53 53 N 15 24 30.54 1034 10 16 N/A
1:55 am 01:55 Partly Cloudy 6 -14.7 -6 -21.3 58 58 N 13 20 30.54 1034 10 16 N/A
2:15 am 02:15 Clear 5 -15.1 -6 -21.2 60 60 N 12 19 30.55 1034 10 16 N/A
2:35 am 02:35 Clear 5 -15.2 -5 -20.7 63 63 N 13 20 30.55 1035 10 16 N/A
2:55 am 02:55 Partly Cloudy 5 -15.1 -5 -20.5 64 64 N 12 19 30.55 1034 10 16 N/A
3:15 am 03:15 Partly Cloudy 5 -15.2 -5 -20.4 65 65 N 13 20 30.55 1035 10 16 N/A
3:35 am 03:35 Clear 4 -15.6 -5 -20.6 66 66 N 12 19 30.55 1035 10 16 N/A
3:55 am 03:55 Partly Cloudy 4 -15.6 -5 -20.4 67 67 N 9 15 30.55 1035 10 16 N/A
4:15 am 04:15 Mostly Cloudy 4 -15.7 -5 -20.7 66 66 N 13 20 30.55 1034 10 16 N/A
4:35 am 04:35 Cloudy 4 -15.8 -6 -21.1 64 64 N 13 20 30.56 1035 10 16 N/A
4:55 am 04:55 Mostly Cloudy 3 -16 -6 -21 66 66 N 9 15 30.57 1035 10 16 N/A
5:15 am 05:15 Mostly Cloudy 3 -16 -6 -21 66 66 N 10 17 30.57 1035 10 16 N/A
5:35 am 05:35 Mostly Cloudy 3 -16 -6 -21 66 66 N 9 15 30.57 1035 10 16 N/A
5:55 am 05:55 Cloudy 3 -16 -8 -22.1 60 60 N 10 17 30.57 1035 10 16 N/A
6:15 am 06:15 Cloudy 3 -15.9 -8 -22.2 59 59 N 8 13 30.58 1035 10 16 N/A
6:35 am 06:35 Cloudy 3 -16 -9 -22.9 56 56 N 9 15 30.57 1035 10 16 N/A
6:55 am 06:55 Cloudy 3 -16 -9 -22.7 57 57 N 9 15 30.58 1036 10 16 N/A
7:15 am 07:15 Cloudy 3 -16 -9 -22.9 56 56 N 9 15 30.58 1036 10 16 N/A
7:35 am 07:35 Cloudy 3 -16 -8 -22.4 58 58 N 7 11 30.60 1036 10 16 N/A
7:55 am 07:55 Cloudy 3 -16.1 -9 -22.5 58 58 N 10 17 30.60 1036 10 16 N/A
8:15 am 08:15 Cloudy 2 -16.6 -10 -23.3 56 56 N 9 15 30.62 1037 10 16 N/A
8:35 am 08:35 Partly Cloudy 2 -16.5 -9 -23 57 57 N 8 13 30.63 1037 10 16 N/A
8:55 am 08:55 Partly Cloudy 3 -16.2 -10 -23.2 55 55 N 7 11 30.63 1037 10 16 N/A
9:15 am 09:15 Partly Cloudy 3 -16 -9 -23 55 55 NNE 5 7 30.63 1037 10 16 N/A
9:35 am 09:35 Sunny 4 -15.3 -9 -23 52 52 N N/A 30.63 1037 10 16 N/A
9:55 am 09:55 Sunny 7 -13.9 -11 -24.1 42 42 NNE 6 9 30.62 1037 10 16 N/A
10:15 am 10:15 Partly Cloudy 8 -13.2 -11 -23.7 41 41 NE 7 11 30.61 1037 10 16 N/A
10:35 am 10:35 Mostly Cloudy 9 -12.7 -10 -23.6 40 40 NE 3 6 30.60 1036 10 16 N/A
10:55 am 10:55 Cloudy 10 -12 -9 -23 40 40 ENE 7 11 30.58 1036 10 16 N/A
11:15 am 11:15 Partly Cloudy 12 -11.2 -8 -22 41 41 NNW 3 6 30.59 1036 10 16 N/A
11:35 am 11:35 Mostly Cloudy 12 -11.1 -7 -21.6 42 42 N N/A 30.58 1036 10 16 N/A
11:55 am 11:55 Cloudy 13 -10.6 -6 -20.9 43 43 N N/A 30.58 1036 10 16 N/A
12:15 pm 12:15 Mostly Cloudy 15 -9.6 -3 -19.4 45 45 N 5 7 30.56 1035 10 16 N/A
12:35 pm 12:35 Partly Cloudy 16 -9.1 -2 -19.1 44 44 NE 3 6 30.54 1034 10 16 N/A
12:55 pm 12:55 Mostly Cloudy 17 -8.5 -1 -18.2 46 46 NNE 3 6 30.53 1034 10 16 N/A
1:15 pm 13:15 Cloudy 17 -8.2 N/A 46 46 E 6 9 30.51 1033 10 16 N/A
1:35 pm 13:35 Cloudy 17 -8.3 -1 -18.1 45 45 N N/A 30.50 1033 10 16 N/A
1:55 pm 13:55 Partly Cloudy 18 -7.6 1 -17.1 47 47 NE 5 7 30.49 1032 10 16 N/A
2:15 pm 14:15 Partly Cloudy 19 -7 2 -16.9 46 46 N N/A 30.48 1032 10 16 N/A
2:35 pm 14:35 Sunny 19 -7 3 -16.2 48 48 N 3 6 30.47 1032 10 16 N/A
2:55 pm 14:55 Partly Cloudy 21 -6.3 4 -15.6 48 48 S 3 6 30.45 1031 10 16 N/A
3:15 pm 15:15 Mostly Cloudy 21 -6.3 4 -15.7 48 48 N N/A 30.46 1032 10 16 N/A
3:35 pm 15:35 Mostly Cloudy 22 -5.8 4 -15.3 47 47 N N/A 30.46 1031 10 16 N/A
3:55 pm 15:55 Partly Cloudy 22 -5.6 5 -15.2 47 47 SSW 3 6 30.45 1031 10 16 N/A
4:15 pm 16:15 Mostly Cloudy 22 -5.6 4 -15.4 46 46 S 7 11 30.46 1031 10 16 N/A
4:35 pm 16:35 Mostly Cloudy 22 -5.6 5 -15 48 48 S 7 11 30.45 1031 10 16 N/A
4:55 pm 16:55 Mostly Cloudy 22 -5.8 5 -15.1 48 48 SSW 6 9 30.46 1031 10 16 N/A
5:15 pm 17:15 Partly Cloudy 22 -5.6 5 -15 48 48 SSE 5 7 30.45 1031 10 16 N/A
5:35 pm 17:35 Partly Cloudy 22 -5.6 5 -15.1 48 48 S 5 7 30.45 1031 10 16 N/A
5:55 pm 17:55 Sunny 22 -5.8 6 -14.7 50 50 S 7 11 30.45 1031 10 16 N/A
6:15 pm 18:15 Clear 20 -6.5 6 -14.2 55 55 SSW 7 11 30.45 1031 10 16 N/A
6:35 pm 18:35 Clear 18 -7.6 6 -14.2 60 60 S 8 13 30.47 1032 10 16 N/A
6:55 pm 18:55 Clear 18 -7.9 6 -14.4 60 60 S 7 11 30.48 1032 10 16 N/A
7:15 pm 19:15 Clear 17 -8.2 6 -14.5 61 61 S 8 13 30.48 1032 10 16 N/A
7:35 pm 19:35 Clear 17 -8.5 5 -14.8 61 61 S 8 13 30.50 1033 10 16 N/A
7:55 pm 19:55 Clear 16 -8.7 5 -15 61 61 S 9 15 30.50 1033 10 16 N/A
8:15 pm 20:15 Clear 16 -9 5 -15 62 62 S 10 17 30.50 1033 10 16 N/A
8:35 pm 20:35 Clear 15 -9.3 5 -15 64 64 S 9 15 30.50 1033 10 16 N/A
8:55 pm 20:55 Clear 15 -9.5 5 -14.8 66 66 S 9 15 30.51 1033 10 16 N/A
9:15 pm 21:15 Clear 15 -9.5 5 -15.1 64 64 S 10 17 30.51 1033 10 16 N/A
9:35 pm 21:35 Clear 13 -10.4 5 -15 69 69 S 8 13 30.52 1033 10 16 N/A
9:55 pm 21:55 Clear 13 -10.3 5 -15.1 68 68 S 7 11 30.52 1033 10 16 N/A
10:15 pm 22:15 Clear 13 -10.4 4 -15.5 67 67 S 9 15 30.52 1033 10 16 N/A
10:35 pm 22:35 Clear 14 -9.8 4 -15.6 63 63 S 12 19 30.51 1033 10 16 N/A
10:55 pm 22:55 Clear 14 -10 4 -15.7 63 63 S 10 17 30.51 1033 10 16 N/A
11:15 pm 23:15 Clear 14 -10.2 4 -15.5 65 65 S 10 17 30.51 1033 10 16 N/A
11:35 pm 23:35 Clear 13 -10.5 5 -15 70 70 S 9 15 30.51 1033 10 16 N/A
11:55 pm 23:55 Clear 12 -11 5 -14.9 73 73 S 7 11 30.50 1033 10 16 N/A

Powered by AerisWeather